Find Starlink 11611

NORAD ID: 63138 Int'l Des: 2025-043 Owner: SPXS Country: US Constellation: starlink operational
LEOCIRCULAR

リアルタイム位置

3D地球を読み込み中...

Starlink 11611について

説明を読み込み中...

次回通過

Passes for default location (London). Set your location on the main map for personalized predictions.

高度履歴

Loading altitude history...

軌道要素

1 63138U 25043G 26125.66164764 .00237676 00000-0 17846-2 0 9990
2 63138 42.9976 267.1889 0002403 222.9358 137.1322 15.71087963 68438
Epoch: May 5, 2026 • Age: 9 hours

現在のステータス

高度 361.4 km
速度 7.69 km/s
衛星直下点 -24.58°S, 1.3°W
打ち上げ日 Mar 3, 2025
運用期間 1.1 years
タイプ internet

技術仕様

分類 Payload
質量 960.00 kg
乾燥質量 910.00 kg
総質量 960.00 kg
長さ 0.30 m
直径 4.10 m
スパン 29.00 m
形状 Box + pan
製造者 SPXS
バスタイプ Starlink V2MD
フェーズステータス In Orbit
所有者/国 SPXS/US

Most Searched